Wind_Speed
11 11 12 12 13 13 13 13 14 14 15 15 16 17 18 19 20 21 21 21 22 23 23 24 25 25 25 26 26 26 25 25 24 24 23 23 23 22 22 22 22 23 23 23 22 22 21 20 20
8 8 10 11 11 12 12 12 12 13 13 14 15 17 19 21 21 22 22 21 22 23 24 25 26 26 27 27 27 27 27 27 27 26 26 26 25 25 24 24 24 25 26 26 26 25 25 24 24
6 7 7 8 8 8 8 8 9 11 12 13 14 15 16 18 19 20 21 21 21 22 23 24 26 27 28 28 29 29 29 29 28 28 28 27 27 27 27 27 27 27 27 28 28 28 28 28 27
5 4 4 4 5 4 5 7 10 11 11 11 11 12 13 14 16 18 20 21 22 22 23 25 26 28 28 29 30 30 30 30 30 30 29 29 29 29 29 29 29 29 29 29 29 29 30 30 30
5 5 4 4 4 4 6 8 9 10 10 10 11 12 12 13 14 16 18 20 21 22 23 25 26 28 28 29 30 30 31 31 31 31 32 32 31 31 31 31 31 31 31 31 31 31 31 31 31
5 5 5 5 5 6 7 9 11 11 11 11 12 14 14 15 15 16 18 20 22 24 25 26 27 28 29 30 31 32 33 33 34 34 34 34 34 34 34 33 33 33 33 33 33 33 32 32 32
5 5 5 5 5 7 9 11 13 15 16 16 16 17 18 19 20 20 21 23 25 26 27 28 29 30 31 32 33 34 35 36 36 37 37 37 37 37 37 37 36 35 35 36 36 35 35 34 33
6 5 5 6 8 9 11 12 13 15 17 18 19 20 21 22 23 24 24 25 27 28 29 30 31 33 34 35 35 35 35 36 36 37 38 39 40 40 40 40 39 38 38 38 38 38 37 36 35
7 7 7 8 9 11 12 12 12 14 15 17 19 20 22 23 25 26 27 28 29 30 31 31 32 33 34 35 35 35 35 35 35 36 37 38 39 40 41 42 41 41 40 40 40 40 39 38 37
8 8 9 10 11 11 12 13 13 14 14 16 18 20 22 24 26 28 29 30 31 31 32 32 32 33 34 35 36 37 37 38 38 38 38 39 39 40 40 41 41 41 41 41 41 41 41 40 39
8 9 10 11 11 12 13 13 14 15 16 17 19 21 23 25 27 29 31 32 33 34 34 35 35 36 37 38 39 40 41 42 42 42 42 43 43 42 42 41 41 41 41 42 42 41 41 40 40
8 9 10 11 12 12 13 13 13 14 16 18 19 22 24 26 28 30 31 32 34 35 35 36 36 37 38 39 41 42 43 44 45 45 45 45 46 46 45 44 43 42 42 42 43 43 42 41 41
9 10 10 11 12 12 12 12 12 14 15 17 19 22 24 26 29 31 33 35 36 37 38 39 40 41 42 43 43 44 45 45 45 46 46 47 47 48 48 47 47 45 44 44 44 45 45 44 43
9 9 10 11 11 12 12 12 13 14 16 19 21 24 26 29 32 34 37 39 40 42 43 44 45 46 47 48 49 50 50 50 50 50 50 49 49 49 49 49 49 49 48 47 47 47 47 47 47
10 10 11 11 12 12 12 13 15 18 20 23 26 29 31 34 36 38 40 42 44 46 48 49 51 52 53 54 55 55 56 56 57 56 56 55 54 53 53 52 52 52 51 51 51 50 50 50 50
10 10 11 11 12 13 15 16 19 22 25 28 31 33 35 37 40 42 44 46 48 50 51 53 55 56 58 59 60 60 60 60 61 61 61 60 60 59 58 57 56 56 55 55 54 54 53 53 52
9 10 11 13 15 17 19 22 24 27 30 33 35 38 40 43 45 47 49 51 53 55 56 58 59 61 62 63 63 64 64 63 63 63 63 63 63 64 64 63 62 61 60 59 58 58 58 57 57
10 12 14 16 19 22 25 27 30 33 36 39 41 44 47 50 52 54 56 58 60 62 63 64 65 65 66 66 67 67 67 66 65 65 65 65 65 65 66 67 66 66 65 64 63 63 62 61 61
13 15 18 20 22 25 29 32 35 38 41 44 46 50 53 56 58 61 63 65 66 68 69 70 70 70 70 70 70 70 70 69 69 69 69 69 69 69 69 69 69 70 70 69 68 68 67 66 66
15 18 21 23 26 29 33 37 39 42 45 47 51 54 58 61 64 67 69 72 73 75 75 75 75 75 75 75 75 75 75 75 75 75 74 74 74 74 74 74 74 74 74 73 73 72 72 71 70
19 21 24 27 30 33 38 42 44 46 48 52 56 60 64 67 71 74 77 79 80 81 80 80 80 80 80 80 80 80 80 79 80 80 80 80 80 80 80 80 80 80 79 79 78 77 77 76 74
21 24 27 31 35 38 42 46 47 50 53 57 61 66 70 73 77 80 81 82 83 83 83 83 83 83 82 81 81 80 81 81 81 81 82 82 83 84 84 84 85 84 84 84 83 82 81 81 79
23 27 31 34 38 41 45 49 53 55 58 62 67 71 74 78 80 81 82 82 82 82 81 80 78 76 75 73 72 71 70 70 70 71 72 73 75 78 80 81 84 85 85 86 86 85 85 84 84
27 31 35 38 42 45 49 53 57 59 64 68 72 75 77 79 79 79 78 78 76 74 71 68 65 62 60 58 56 54 52 50 48 48 49 51 54 58 61 65 69 72 76 79 81 83 84 85 85
31 35 38 42 45 49 52 56 60 64 69 72 75 77 78 78 77 75 72 70 66 62 58 56 54 51 49 47 45 42 39 36 34 32 32 34 36 39 42 45 49 54 59 64 69 74 78 81 83
34 37 41 45 48 51 54 58 63 68 71 74 76 77 76 74 71 68 65 61 57 53 51 49 47 46 44 41 39 36 33 30 29 28 27 27 28 30 33 35 38 42 46 51 56 61 67 72 76
37 40 44 47 51 54 57 61 67 70 72 74 75 74 72 68 64 60 57 54 51 48 47 46 45 44 42 39 36 34 32 30 28 27 26 26 26 27 29 31 33 35 38 41 44 49 55 62 67
39 43 47 50 54 57 60 66 68 71 73 74 74 71 67 61 57 54 51 48 47 46 46 46 45 43 41 39 37 34 32 30 29 28 28 28 28 29 30 31 32 34 36 37 39 41 45 50 56
41 44 48 52 55 60 65 68 70 72 73 74 72 67 61 55 52 50 48 47 47 47 47 46 44 43 42 40 38 36 34 33 32 31 31 30 30 31 32 33 34 35 36 37 37 38 38 41 44
42 46 50 53 58 61 66 69 72 73 73 73 69 62 56 52 50 49 48 48 48 48 47 47 46 44 43 42 40 39 37 36 35 35 34 34 34 34 35 35 36 37 37 37 37 36 36 36 36
Wind_Direction
277 273 270 267 262 257 249 242 239 242 246 251 257 261 265 267 270 273 268 263 257 254 252 254 257 261 263 266 268 272 274 276 277 278 279 280 279 277 274 268 262 257 254 253 254 255 257 259 262
289 286 277 271 267 268 258 253 250 256 258 261 263 266 269 271 273 273 273 269 263 259 258 259 262 263 264 266 268 270 272 273 273 274 274 275 275 273 270 266 261 257 254 253 253 254 256 258 260
308 297 289 286 286 287 284 279 284 281 273 271 271 271 271 272 274 274 275 274 272 268 266 266 266 266 266 267 268 269 269 269 269 269 270 270 270 269 267 264 260 257 255 253 253 254 255 256 258
337 332 312 307 329 333 322 314 307 296 288 285 281 279 280 280 280 282 283 284 282 278 274 272 271 269 269 268 268 268 268 268 267 268 268 268 267 267 265 263 260 258 256 254 253 253 254 255 255
353 1 19 26 30 6 343 319 308 301 296 293 291 290 294 293 291 288 286 284 284 282 279 276 274 273 272 271 271 270 270 269 268 268 267 267 266 264 263 261 260 258 257 256 255 253 253 253 254
2 0 3 11 8 342 325 316 310 309 308 305 302 300 300 297 290 284 280 279 279 280 280 279 279 278 276 275 274 273 272 271 270 269 267 266 265 263 262 261 259 258 257 256 255 254 253 252 252
356 355 354 347 336 322 317 315 315 316 316 314 310 307 303 299 295 291 286 283 282 282 282 281 280 278 276 275 274 273 273 272 271 270 268 267 265 264 263 261 260 258 257 256 255 254 254 253 252
0 353 343 334 325 320 320 319 317 316 315 313 311 308 304 301 299 296 293 290 287 286 286 286 285 283 280 278 276 275 274 273 272 271 269 268 266 264 263 261 260 259 257 255 254 253 253 252 251
13 4 355 348 342 340 337 331 324 319 313 310 308 306 304 302 301 299 297 295 293 291 290 289 287 285 283 281 279 277 275 273 272 271 270 269 267 265 263 262 261 259 257 255 253 251 250 250 249
26 16 9 3 359 353 345 337 329 322 315 309 307 305 303 302 302 301 300 299 297 295 293 290 288 286 284 282 280 279 278 276 275 273 272 270 269 267 265 263 262 260 258 255 252 250 248 247 246
19 8 359 354 348 343 338 332 327 323 318 314 310 307 305 304 304 303 302 301 300 298 296 293 290 287 284 282 280 279 278 277 276 274 272 271 269 268 267 265 264 261 259 255 252 249 247 245 244
356 350 346 342 341 342 342 339 334 330 326 322 318 314 312 310 307 306 304 302 301 300 297 294 291 288 284 281 279 278 276 275 273 272 271 270 269 268 267 266 264 262 259 256 253 250 247 245 242
356 353 352 353 358 3 2 357 349 341 334 328 323 318 315 312 309 307 305 303 301 299 297 294 291 288 285 282 279 277 275 273 272 271 269 268 266 266 265 265 263 261 258 256 255 252 249 247 243
22 21 23 26 28 24 14 1 349 338 329 323 318 315 312 309 307 305 303 301 299 297 295 292 290 287 284 282 280 278 276 274 272 270 268 266 264 263 262 262 262 260 258 255 254 253 251 249 247
51 45 40 33 25 13 1 345 335 329 325 322 319 316 314 311 308 305 302 300 297 295 293 291 289 287 284 282 280 278 276 275 273 271 269 266 264 262 260 259 258 258 256 255 253 251 250 249 249
47 38 27 16 5 354 346 338 333 329 326 323 321 319 316 312 308 305 302 299 296 294 291 289 287 285 283 281 279 278 276 274 272 271 270 268 266 263 261 259 257 256 255 254 253 251 250 248 248
32 19 9 359 351 345 339 335 333 329 326 324 322 318 315 311 308 305 302 299 296 293 291 288 286 284 282 280 278 276 275 273 271 269 268 267 266 264 262 260 258 255 254 253 252 251 250 249 248
10 0 354 348 344 340 335 332 330 328 326 323 320 316 313 310 307 305 302 300 297 294 292 289 287 284 282 280 277 275 274 272 270 268 267 265 264 263 262 260 259 257 255 253 251 250 249 249 248
353 349 346 344 340 336 332 328 327 325 323 320 317 314 311 309 307 305 303 300 298 295 293 290 288 285 282 280 277 274 272 271 270 268 267 265 263 261 260 259 258 257 256 255 253 251 250 248 248
347 344 341 337 334 331 327 324 324 323 321 319 316 313 311 309 308 306 304 302 299 296 294 291 288 285 283 279 276 273 270 268 266 266 265 264 263 261 260 258 258 257 257 256 255 254 252 250 249
342 340 337 333 331 329 325 324 324 323 322 319 316 314 313 311 309 307 306 304 302 299 297 294 291 288 286 283 279 276 273 270 267 265 263 262 261 260 260 259 259 258 258 257 256 256 254 253 251
337 336 333 331 329 328 326 323 325 325 322 320 318 316 315 313 312 310 308 306 303 301 299 298 297 296 294 292 289 285 281 277 273 270 267 266 264 262 261 260 260 260 259 259 258 257 256 255 253
333 331 330 329 328 328 327 326 326 325 322 320 319 318 317 316 314 312 310 307 306 305 304 303 303 302 302 301 299 296 292 287 282 278 274 271 269 267 265 263 261 261 261 260 260 259 258 256 254
330 329 329 328 328 329 329 326 326 325 323 322 321 320 319 317 315 313 312 310 310 309 309 309 309 309 309 308 306 303 299 295 290 284 279 274 271 268 267 265 264 263 262 261 260 259 258 257 255
330 330 329 329 330 330 328 326 326 326 324 323 322 322 320 319 317 316 315 315 315 316 317 317 317 316 316 315 314 311 307 302 296 288 281 275 270 266 264 263 263 262 260 259 258 257 256 255 254
330 330 331 330 329 328 327 327 326 325 325 324 324 323 322 321 320 320 321 322 323 324 324 324 324 323 323 322 320 318 314 309 303 296 288 281 274 269 266 266 266 265 263 262 259 257 254 252 251
330 330 330 328 327 328 327 327 326 326 326 326 325 324 323 323 324 325 327 327 328 328 328 328 329 328 327 327 326 323 320 315 310 304 296 289 283 278 275 274 274 273 272 270 267 263 259 254 250
330 330 330 329 328 327 327 327 328 327 327 327 327 326 325 326 328 329 330 331 331 331 331 331 331 330 329 327 325 324 320 316 312 306 300 294 291 287 283 282 281 281 279 277 275 272 266 259 253
331 330 329 328 328 327 326 328 328 329 329 329 328 328 328 329 330 331 332 332 331 331 330 329 328 327 326 325 322 320 317 313 309 305 301 296 292 289 287 286 285 284 282 280 280 277 273 264 256
331 329 329 329 328 327 327 329 330 330 331 330 329 329 329 330 331 332 332 331 330 328 327 326 325 324 323 321 318 316 313 309 306 303 299 296 293 290 288 286 285 284 283 281 280 278 274 266 255
Height
5839 5839 5841 5842 5843 5844 5843 5844 5844 5844 5845 5845 5845 5846 5846 5847 5848 5850 5849 5848 5849 5849 5849 5849 5849 5849 5849 5849 5849 5848 5848 5848 5847 5847 5847 5847 5847 5847 5847 5847 5848 5848 5849 5850 5851 5851 5852 5852 5853
5838 5839 5841 5842 5842 5842 5843 5843 5843 5844 5845 5845 5844 5844 5844 5844 5845 5845 5844 5844 5845 5845 5846 5846 5846 5845 5845 5845 5844 5844 5843 5843 5842 5842 5842 5841 5841 5842 5842 5842 5843 5843 5844 5845 5846 5847 5847 5848 5848
5838 5839 5842 5842 5841 5842 5843 5843 5843 5843 5843 5843 5843 5843 5843 5842 5842 5841 5841 5841 5841 5841 5842 5842 5842 5841 5840 5840 5839 5838 5838 5837 5837 5836 5836 5836 5836 5836 5836 5836 5837 5837 5838 5839 5840 5841 5842 5843 5843
5839 5841 5841 5841 5841 5842 5842 5843 5843 5843 5842 5842 5842 5842 5841 5841 5841 5840 5839 5839 5839 5838 5838 5837 5837 5836 5836 5835 5834 5833 5832 5832 5831 5831 5830 5830 5830 5830 5830 5830 5831 5831 5831 5832 5833 5834 5835 5836 5837
5840 5841 5841 5841 5841 5842 5842 5842 5842 5842 5842 5841 5841 5841 5840 5841 5840 5840 5838 5837 5836 5835 5834 5833 5832 5832 5831 5830 5829 5828 5827 5826 5825 5825 5824 5824 5824 5824 5824 5824 5824 5824 5825 5825 5826 5827 5828 5830 5831
5841 5841 5841 5840 5841 5841 5841 5841 5841 5841 5841 5840 5840 5840 5839 5838 5838 5837 5835 5834 5832 5831 5830 5829 5828 5827 5825 5824 5823 5821 5820 5819 5818 5818 5817 5817 5817 5817 5817 5817 5817 5818 5818 5818 5819 5820 5821 5822 5824
5841 5841 5840 5841 5841 5841 5841 5841 5841 5840 5839 5839 5838 5837 5836 5834 5833 5832 5831 5830 5828 5826 5825 5823 5821 5819 5818 5816 5815 5814 5812 5811 5810 5810 5809 5809 5809 5809 5809 5809 5809 5810 5810 5811 5811 5812 5813 5815 5816
5840 5841 5840 5840 5841 5840 5841 5840 5840 5839 5838 5837 5835 5833 5831 5830 5828 5827 5826 5824 5822 5820 5818 5816 5814 5812 5810 5808 5806 5805 5804 5803 5802 5801 5801 5800 5800 5800 5800 5800 5800 5801 5802 5802 5803 5804 5805 5807 5808
5840 5842 5840 5840 5840 5840 5840 5839 5839 5837 5836 5834 5832 5830 5828 5826 5824 5822 5820 5818 5816 5814 5812 5810 5808 5805 5803 5801 5799 5797 5795 5793 5792 5792 5791 5791 5790 5790 5790 5791 5791 5792 5793 5793 5794 5795 5796 5798 5800
5841 5841 5841 5841 5840 5840 5839 5838 5837 5835 5834 5832 5830 5828 5825 5823 5820 5818 5815 5813 5810 5808 5806 5804 5801 5799 5796 5794 5791 5789 5787 5785 5784 5783 5782 5781 5780 5780 5781 5781 5782 5783 5783 5784 5785 5786 5787 5789 5791
5841 5840 5840 5840 5839 5839 5838 5836 5834 5832 5830 5829 5826 5824 5822 5819 5816 5813 5810 5807 5804 5801 5799 5796 5794 5791 5788 5786 5783 5781 5779 5777 5775 5774 5773 5772 5771 5771 5771 5771 5772 5773 5773 5774 5775 5776 5777 5779 5781
5841 5840 5840 5839 5838 5837 5836 5834 5832 5830 5828 5826 5823 5820 5818 5815 5811 5808 5805 5801 5798 5795 5791 5788 5785 5782 5779 5776 5774 5771 5769 5767 5765 5764 5763 5762 5761 5760 5760 5761 5762 5763 5764 5765 5765 5766 5768 5770 5772
5840 5840 5839 5838 5838 5836 5835 5833 5832 5828 5826 5824 5821 5818 5815 5811 5808 5804 5800 5796 5792 5788 5784 5780 5776 5773 5769 5766 5763 5760 5758 5756 5754 5752 5751 5750 5750 5749 5749 5749 5750 5751 5752 5754 5755 5757 5759 5760 5762
5840 5840 5839 5839 5838 5836 5834 5833 5831 5828 5825 5823 5819 5816 5812 5808 5804 5799 5795 5790 5785 5780 5775 5771 5766 5762 5759 5755 5752 5748 5745 5743 5741 5739 5738 5737 5737 5737 5737 5737 5738 5739 5740 5742 5744 5746 5748 5750 5752
5841 5841 5840 5839 5838 5836 5835 5832 5829 5826 5823 5820 5816 5812 5808 5803 5798 5792 5787 5781 5776 5770 5764 5759 5754 5750 5745 5742 5738 5734 5731 5729 5726 5724 5723 5723 5723 5723 5723 5723 5724 5725 5727 5729 5731 5733 5735 5738 5741
5843 5842 5841 5839 5837 5835 5835 5831 5827 5823 5820 5816 5812 5807 5802 5796 5790 5784 5778 5771 5765 5759 5753 5747 5741 5736 5731 5726 5722 5719 5715 5712 5710 5708 5706 5706 5706 5707 5707 5708 5709 5710 5713 5715 5717 5720 5722 5725 5728
5843 5842 5840 5838 5836 5834 5831 5827 5824 5820 5816 5811 5806 5801 5795 5788 5782 5775 5768 5761 5754 5747 5740 5734 5727 5721 5716 5710 5706 5701 5698 5695 5692 5690 5688 5687 5687 5688 5689 5691 5692 5694 5696 5699 5702 5705 5707 5711 5713
5843 5841 5839 5837 5834 5831 5827 5823 5820 5816 5811 5806 5800 5793 5786 5779 5772 5764 5756 5748 5741 5733 5725 5718 5711 5705 5699 5694 5688 5684 5680 5676 5673 5671 5669 5668 5668 5668 5670 5672 5674 5676 5679 5681 5684 5687 5691 5695 5698
5843 5840 5838 5835 5832 5828 5824 5820 5815 5810 5805 5799 5792 5785 5777 5769 5760 5752 5743 5734 5726 5717 5708 5700 5692 5685 5678 5673 5668 5664 5660 5657 5654 5651 5649 5648 5648 5648 5649 5651 5654 5656 5659 5662 5665 5668 5672 5677 5680
5841 5839 5835 5833 5829 5825 5820 5815 5810 5805 5798 5791 5783 5774 5765 5756 5747 5737 5726 5717 5707 5697 5688 5679 5670 5662 5654 5648 5642 5638 5635 5633 5631 5629 5627 5625 5625 5626 5627 5629 5632 5634 5638 5642 5644 5648 5652 5658 5661
5839 5836 5833 5829 5825 5821 5815 5809 5804 5797 5789 5780 5771 5761 5751 5741 5731 5720 5708 5697 5685 5674 5663 5653 5643 5634 5626 5620 5614 5610 5607 5605 5603 5602 5602 5601 5601 5602 5604 5606 5609 5612 5616 5620 5623 5626 5631 5636 5641
5837 5834 5830 5825 5820 5815 5809 5801 5795 5788 5779 5769 5759 5748 5737 5725 5713 5700 5688 5675 5661 5649 5637 5626 5616 5606 5598 5591 5585 5580 5577 5576 5575 5575 5576 5576 5576 5577 5579 5583 5585 5589 5592 5596 5601 5604 5608 5613 5619
5835 5831 5826 5821 5814 5809 5801 5792 5786 5778 5768 5758 5746 5734 5722 5709 5695 5681 5667 5653 5639 5627 5615 5604 5594 5585 5576 5568 5560 5555 5551 5549 5548 5549 5550 5551 5552 5553 5555 5559 5562 5566 5569 5572 5576 5581 5585 5590 5596
5832 5827 5822 5815 5809 5802 5793 5784 5776 5766 5756 5744 5732 5719 5706 5692 5678 5663 5649 5635 5622 5609 5598 5588 5578 5569 5561 5552 5544 5538 5533 5530 5528 5527 5528 5530 5531 5531 5533 5536 5539 5542 5546 5549 5552 5556 5560 5565 5571
5827 5823 5816 5809 5802 5795 5786 5776 5767 5755 5743 5731 5718 5705 5690 5675 5661 5647 5633 5620 5608 5596 5585 5576 5566 5558 5549 5541 5533 5526 5521 5518 5515 5514 5514 5514 5515 5515 5516 5518 5520 5522 5524 5526 5529 5532 5536 5540 5546
5822 5817 5810 5802 5795 5787 5778 5768 5758 5745 5732 5718 5704 5690 5674 5660 5646 5632 5619 5607 5595 5585 5576 5567 5558 5549 5541 5533 5526 5519 5514 5510 5507 5505 5504 5504 5504 5504 5504 5505 5506 5506 5507 5507 5508 5510 5512 5516 5520
5817 5810 5804 5796 5787 5779 5769 5760 5748 5734 5721 5707 5692 5676 5661 5647 5634 5621 5609 5597 5587 5577 5568 5559 5550 5542 5534 5526 5520 5514 5508 5504 5501 5498 5496 5495 5495 5494 5494 5494 5493 5493 5492 5492 5491 5491 5492 5494 5497
5812 5804 5797 5787 5777 5768 5760 5749 5737 5722 5709 5695 5680 5665 5651 5637 5624 5612 5601 5590 5580 5571 5561 5552 5544 5535 5528 5520 5514 5508 5503 5499 5495 5492 5490 5487 5486 5484 5484 5483 5481 5480 5479 5478 5477 5476 5475 5475 5477
5806 5799 5790 5780 5770 5758 5747 5741 5725 5710 5696 5682 5667 5653 5639 5627 5616 5604 5594 5583 5574 5564 5555 5547 5538 5530 5523 5515 5509 5503 5498 5493 5489 5485 5482 5479 5477 5474 5473 5471 5469 5467 5466 5464 5463 5461 5460 5460 5460
5801 5793 5784 5775 5764 5751 5738 5730 5711 5697 5683 5668 5655 5642 5630 5618 5607 5597 5587 5577 5567 5558 5549 5541 5532 5524 5516 5509 5502 5496 5490 5485 5481 5476 5472 5469 5466 5463 5461 5459 5457 5454 5453 5451 5450 5448 5447 5446 5446